Showing default

QIANFAN-29, 61562

Orbit data source: Space-Track

QIANFAN-29, 61562 is a Chinese payload satellite in LEO that was launched on Tue, 15 Oct 2024 UTC via a CHANG ZHENG 6A launch vehicle from the Taiyaun Space Center, China (TSC). Payloads include a variety of satellites, spacecraft, and rockets equipped with specific instruments for various scientific and technological missions. These include communications satellites like Starlink; space stations such as the ISS; scientific satellites like the Hubble; Earth observation satellites from companies like Planet Labs, Umbra, and HawkEye 360; GPS; miniature CubeSats for education and research; and military/defense satellites.

Loading next visibility...
QIANFAN-29 details
Identifier
61562, 2024-185L
Orbit
LEO
Last TLE update14 hours ago
Origin
Flag of CNYUANX (CN / PRC)
ManufacturerGESIH/SECM
MissionOperational Commercial Communications
Bus & MotorQIANFAN, Unknown motor
Mass300 kg wet, ~300 kg dry
Launch date (UTC)
2024-10-15 (4 months ago)
Launch vehicle
CHANG ZHENG 6A
Launch site
Taiyaun Space Center, China (TSC)
Object type
Payload
Rocket body
Debris
Shape & HBRBox + 1 Pan, 10 m
Radar Cross Section13.200 m², Large (>1 m²)

Expand to show TLE details & history

TLE from 14 hours ago
0 QIANFAN-29
1 61562U 24185L   25046.92225989  .00000352  00000-0  30456-3 0  9994
2 61562  88.9858 112.3575 0009554 185.6641 174.4423 13.84084614 27234
Epoch: 2025-02-15T22:08Z
Definitive object data (Epoch: 2025-02-15T22:08:03.254Z)
Latitude0.00003°
Longitude-5.81878°
Altitude959.405 km
Speed7.368 km/s
True Right ascension07h 29m 25s
True Declination0° 00' 00"
Sunlit
Object was in full shadow at TLE epoch
Visualization TLE readout
Latitude52.90809°
Longitude172.78112°
Altitude954.293 km
Speed7.382 km/s
Apparent Right ascension23h 43m 56s
Apparent Declination20° 34' 19"
Sunlit
Object is in daylight
Visualization observer readout
Local Sidereal Time15:24:12
Azimuth51.366° ENE
Elevation-10.701°
Doppler factor1
Orbital elements
Apogee altitude953.436 km
Perigee altitude939.44 km
Semi-major axis7,324.575 km
Eccentricity0.0009554
Inclination88.9858°
RAAN112.3575°
Arg. of periapsis185.6641°
True anomaly174.45289°
Mean anomaly174.4423°
Eccentric anomaly174.4476°
Mean motion3.46234 °/min
BSTAR0.00030456
Orbital period103.98 mins
Loading maneuver chart data...
Loading historical data...
Loading historical data...
Loading historical data...
Loading historical data...
Loading historical data...
Loading historical data...
Loading historical data...

QIANFAN-29 Visibility forecast

Observer location: undefined°, undefined

Span
Click to sort rows by Start time (UTC) header in descending order
Start Az.
Max El. time (UTC)
Max El. Az.
Max El.
End time (UTC)
End Az.
10 mins2025-02-16 16:04:39.392Z13.94° NNE2025-02-16 16:09:39.392Z90.075° ESE38.259°2025-02-16 16:14:39.392Z160.887° S
6 mins2025-02-16 17:50:39.392Z315.23° NNW2025-02-16 17:52:39.392Z290.541° WNW20.103°2025-02-16 17:56:39.392Z242.974° WSW
9 mins2025-02-17 03:45:39.392Z133.292° SE2025-02-17 03:49:39.392Z79.792° E28.374°2025-02-17 03:54:39.392Z20.048° NNE
9 mins2025-02-17 05:29:39.392Z220.927° SW2025-02-17 05:33:39.392Z278.18° WNW29.596°2025-02-17 05:38:39.392Z339.089° N
|